Location: Dammartin
(48.9032°N, 1.6195°E)
Time: 13:01:16
(UTC+00:00)

YUBILEINY - Pass Details

Date: 14 December 2023
Orbit: 1479 x 1508 km, 82.5° (Epoch: 02 March)

Event Time Altitude Azimuth Distance (km) Brightness Sun altitude
Rises 05:55:55 0° 117° (ESE) 4,633 ? -16.0°
Reaches altitude 10° 06:00:56 10° 93° (E) 3,653 ? -15.2°
Maximum altitude 06:04:25 13° 69° (ENE) 3,414 ? -14.7°
Drops below altitude 10° 06:07:54 10° 45° (NE) 3,651 ? -14.1°
Sets 06:12:52 0° 20° (NNE) 4,631 ? -13.4°
